Location: Newark
(44.1667°N, 8.2500°E)
Time: 15:49:04
(UTC+00:00)

S-56A Canister/Altair - Pass Details

Date: 11 December 2019
Orbit: 634 x 2498 km, 38.9° (Epoch: 28 January)

Event Time Altitude Azimuth Distance (km) Brightness Sun altitude
Rises 09:19:39 0° 232° (SW) 5,590 12.0 17.4°
Reaches altitude 10° 09:23:08 10° 228° (SW) 4,769 11.8 17.7°
Maximum altitude 09:36:43 56° 156° (SSE) 2,829 11.4 18.8°
Drops below altitude 10° 09:50:55 10° 84° (E) 4,962 11.9 19.8°
Sets 09:54:35 0° 81° (E) 5,823 12.2 20.0°
